DELTA 1 DEB, 7038

Orbit data source: Space-Track

DELTA 1 DEB, 7038 is space debris in SSO originally from a launch on Tue, 06 Nov 1973 UTC launched from the Air Force Western Test Range (AFWTR). Debris objects in space refer to the collection of defunct objects orbiting the Earth. Examples of debris include non-operational satellites, rocket bodies, and fragments generated from explosions, collisions, or faulty payload assembly.

Loading next visibility...
Identifier
7038, 1973-086AE
Orbit
SSO
Last TLE update
15 hours ago
Origin
Manufacturer
Unknown
Mission
Spacecraft
Bus & Motor
Unknown
Mass
Unknown
Launch date (UTC)
1973-11-06 (52 years ago)
Launch vehicle
Unknown
Launch site
Air Force Western Test Range (AFWTR)
Object type
Payload
Rocket body
Debris
Shape & HBR
Unknown
Radar Cross Section
Medium (>0.1 m² and <1 m²)

Expand to show TLE details & history

TLE from 15 hours ago
0 DELTA 1 DEB
1 07038U 73086AE  25181.79096214  .00000027  00000-0  60852-3 0  9990
2 07038 101.9035  19.8343 0129920  60.4341 312.2075 12.24362517303502
Epoch: 2025-06-30T18:58Z
TLE epoch observation values (Epoch: 2025-06-30T18:58:59.128Z)
Latitude
11.2348°
Longitude
173.60419°
Altitude
1,506.712 km
Speed
7.143 km/s
True Right ascension
01h 09m 47s
True Declination
11° 10' 32"
Sunlit
Object was in daylight at epoch
Visualization orbit readout
Latitude
-54.19703°
Longitude
-166.49359°
Altitude
1,637.033 km
Speed
7.034 km/s
Apparent Right ascension
06h 20m 12s
Apparent Declination
-62° 58' 49"
Sunlit
Object is in daylight
Visualization observer readout
Local Sidereal Time
21:56:46
Azimuth
144.306° SSE
Elevation
-50.87°
Doppler factor
1
Orbital elements
Apogee altitude
1,674.463 km
Perigee altitude
1,467.908 km
Semi-major axis
7,949.323 km
Eccentricity
0.01299
Inclination
101.9035°
RAAN
19.8343°
Arg. of periapsis
60.4341°
True anomaly
Unknown
Mean anomaly
312.2075°
Eccentric anomaly
Unknown
Mean motion
3.0623 °/min
Orbital period
117.56 mins
BSTAR
0.00060852
Loading maneuver chart data...
Loading SW <> Apogee altitude chart data...
Loading historical data...
Loading historical data...
Loading historical data...
Loading historical data...
Loading historical data...
Loading historical data...
Loading historical data...

DELTA 1 DEB Visibility forecast

Observer location: undefined°, undefined°

Span
Click to sort rows by Start time (UTC) header in descending order
Start Az.
Max El. time (UTC)
Max El. Az.
Max El.
End time (UTC)
End Az.
9 mins2025-07-01 10:49:21.345Z81.214° E2025-07-01 10:53:21.345Z50.851° ENE16.286°2025-07-01 10:58:21.345Z13.011° NNE
15 mins2025-07-01 12:40:21.345Z151.265° SSE2025-07-01 12:47:21.345Z87.919° E43.953°2025-07-01 12:55:21.345Z346.178° N
10 mins2025-07-01 14:39:21.345Z228.942° WSW2025-07-01 14:43:21.345Z262.433° W20.463°2025-07-01 14:49:21.345Z311.38° NW
14 mins2025-07-02 00:59:21.345Z40.786° NE2025-07-02 01:06:21.345Z103.449° ESE28.308°2025-07-02 01:13:21.345Z157.25° SSE
15 mins2025-07-02 02:54:21.345Z7.684° NNE2025-07-02 03:01:21.345Z298.86° NW40.162°2025-07-02 03:09:21.345Z220.799° SW
5 mins2025-07-02 04:53:21.345Z328.218° NNW2025-07-02 04:55:21.345Z313.568° NW12.69°2025-07-02 04:58:21.345Z292.685° NW
|